Accueil
METAR-TAF:

METAR-TAF

Aéroports :

Newton City/County Airport

Newton, Kansas, États-Unis

latitude: 38-03N, longitude: 097-17W, altitude: 467 m

Observation

Le bulletin a été fait il y a 18 minutes, à 07:56 UTC
Vent 6 kt de sud/sud-est
Température 14°C
Humidité 94%
Pression 1014 hPa
Visibilité: 9.7 km
Nuages épars à une hauteur de 400 ft
Nuages fragmentés à une hauteur de 1800 ft
brume

METAR: KEWK 240756Z AUTO 15006KT 6SM BR SCT004 BKN018 14/13 A2995 RMK AO2 SLP131 T01390133

Heure: 03:14 (08:14 UTC)


TAF: absent

Observations et prévisions météorologiques de plus de 4000 aéroports (messages METAR et TAF).

Les stations disponibles sont représentées par des disques jaunes et rouges sur la carte.

Passer la souris dessus pour voir le nom de la station.

Cliquer dessus pour voir les observations et prévisions météorologiques.

Pour changer de carte: cliquez sur les boutons verts avec une croix noire pour zoomer, sur le bouton vert avec un tiret pour effectuer un zoom arrière, ou sur les flèches vertes pour les cartes adjacentes.


METAR-TAF: